Terminal Aerodrome Forecast
Issued by NWS

Home | Current Version | Previous Version | Text Only | Print | Product List | Glossary On
Versions: 1 2 3 4 5 6 7 8 9 10 11 12 13 14 15 16 17
000
FTAK31 PAFA 160539
TAFASC
TAF
PASC 160539Z 1606/1706 VRB04KT P6SM BKN200
     FM161100 25004KT 2SM BR SCT002 BKN100
     FM161500 26004KT 1 1/2SM BR SCT002 BKN100
     FM161800 27006KT 4SM BR SCT002 BKN100
     FM170100 28007KT P6SM VCFG BKN050=

USA.gov is the U.S. government's official web portal to all federal, state and local government web resources and services.